Change the Weather History Date:

Saturday, September 21, 2013

  Actual Average Record
Temperature  
Mean Temperature 76 °F -  
Max Temperature 85 °F 87 °F 98 °F (2005)
Min Temperature 64 °F 67 °F 59 °F (2002)
Cooling Degree Days 12    
Growing Degree Days 26 (Base 50)    
Moisture  
Dew Point 62 °F    
Average Humidity 65    
Maximum Humidity 88    
Minimum Humidity 34    
Precipitation  
Precipitation 0.00 in - - ()
Sea Level Pressure  
Sea Level Pressure 29.84 in    
Wind  
Wind Speed 13 mph (NNE)    
Max Wind Speed 20 mph    
Max Gust Speed 25 mph    
Visibility 10 miles    
Events      
Averages and records for this station are not official NWS values.
T = Trace of Precipitation, MM = Missing Value Source: NWS Daily Summary

Daily Weather History Graph

Daily Weather History Graph

Search for Another Location

Airport or City:

Trip Planner

Search our weather history database for the weather conditions in past years. The results will help you decide how hot, cold, wet, or windy it might be!

Date:

Astronomy

Sep. 21, 2013 Rise Set
Actual Time 7:22 AM CDT 7:31 PM CDT
Civil Twilight 6:58 AM CDT 7:55 PM CDT
Nautical Twilight 6:30 AM CDT 8:23 PM CDT
Astronomical Twilight 6:02 AM CDT 8:50 PM CDT
Moon 8:58 PM CDT (9/21) 9:28 AM CDT (9/21)
Length of Visible Light 12h 56m
Length of Day
12h 09m
Waning Gibbous, 94% of the Moon is Illuminated
Sep 21
Waning Gibbous
Sep 26
Last Quarter
Oct 4
New
Oct 11
First Quarter
Oct 18
Full

Hourly Weather History & Observations

Time (CDT) Temp. Heat Index Dew Point Humidity Pressure Visibility Wind Dir Wind Speed Gust Speed Precip Events Conditions
12:08 AM 71.6 °F - 68.0 °F 88% 29.85 in 10.0 mi NNE 13.8 mph 18.4 mph N/A   Mostly Cloudy
12:58 AM 72.7 °F - 68.0 °F 85% 29.83 in 10.0 mi North 10.4 mph - N/A   Mostly Cloudy
1:03 AM 73.4 °F - 68.0 °F 83% 29.85 in 10.0 mi NNE 8.1 mph - N/A   Mostly Cloudy
1:48 AM 73.4 °F - 68.0 °F 83% 29.85 in 10.0 mi NNE 11.5 mph - N/A   Mostly Cloudy
1:58 AM 73.4 °F - 68.0 °F 83% 29.83 in 10.0 mi North 11.5 mph - N/A   Mostly Cloudy
2:58 AM 72.3 °F - 66.6 °F 82% 29.82 in 10.0 mi North 12.7 mph - N/A   Mostly Cloudy
3:58 AM 71.8 °F - 66.6 °F 84% 29.81 in 10.0 mi North 11.5 mph - N/A   Mostly Cloudy
4:58 AM 71.6 °F - 66.2 °F 83% 29.81 in 10.0 mi North 13.8 mph 21.9 mph N/A   Mostly Cloudy
5:18 AM 71.6 °F - 66.2 °F 83% 29.82 in 10.0 mi North 13.8 mph 23.0 mph N/A   Overcast
5:23 AM 71.6 °F - 66.2 °F 83% 29.83 in 10.0 mi NNE 13.8 mph - N/A   Mostly Cloudy
5:28 AM 71.6 °F - 66.2 °F 83% 29.83 in 10.0 mi NNE 15.0 mph - N/A   Overcast
5:53 AM 71.6 °F - 66.2 °F 83% 29.83 in 10.0 mi North 17.3 mph 25.3 mph N/A   Overcast
5:58 AM 72.3 °F - 66.4 °F 82% 29.81 in 10.0 mi North 15.0 mph 25.3 mph N/A   Overcast
6:33 AM 71.6 °F - 66.2 °F 83% 29.84 in 10.0 mi NNE 17.3 mph 21.9 mph N/A   Overcast
6:43 AM 71.6 °F - 66.2 °F 83% 29.85 in 10.0 mi NNE 13.8 mph - N/A   Mostly Cloudy
6:58 AM 72.1 °F - 65.8 °F 80% 29.83 in 10.0 mi NNE 11.5 mph 24.2 mph N/A   Mostly Cloudy
7:03 AM 71.6 °F - 66.2 °F 83% 29.85 in 10.0 mi NNE 12.7 mph 24.2 mph N/A   Scattered Clouds
7:58 AM 72.3 °F - 65.3 °F 78% 29.85 in 10.0 mi North 13.8 mph 25.3 mph N/A   Partly Cloudy
8:58 AM 72.9 °F - 64.9 °F 76% 29.88 in 10.0 mi NNE 16.1 mph 20.7 mph N/A   Mostly Cloudy
9:58 AM 74.8 °F - 64.8 °F 71% 29.88 in 10.0 mi North 13.8 mph - N/A   Scattered Clouds
10:58 AM 76.3 °F - 64.6 °F 67% 29.89 in 10.0 mi NNE 15.0 mph 23.0 mph N/A   Partly Cloudy
11:13 AM 77.0 °F - 64.4 °F 65% 29.91 in 10.0 mi North 17.3 mph 21.9 mph N/A   Mostly Cloudy
11:38 AM 77.0 °F - 64.4 °F 65% 29.91 in 10.0 mi NNE 17.3 mph 23.0 mph N/A   Scattered Clouds
11:58 AM 79.2 °F - 64.9 °F 62% 29.89 in 10.0 mi NE 17.3 mph 21.9 mph N/A   Partly Cloudy
12:58 PM 80.6 °F 82.2 °F 64.2 °F 57% 29.87 in 10.0 mi NNE 19.6 mph 23.0 mph N/A   Partly Cloudy
1:43 PM 80.6 °F 81.8 °F 62.6 °F 54% 29.88 in 10.0 mi NNE 12.7 mph 20.7 mph N/A   Scattered Clouds
1:58 PM 80.6 °F 81.9 °F 63.3 °F 55% 29.86 in 10.0 mi NE 11.5 mph 23.0 mph N/A   Partly Cloudy
2:16 PM 82.4 °F 83.4 °F 62.6 °F 51% 29.87 in 10.0 mi NE 16.1 mph - N/A   Clear
2:58 PM 82.9 °F 83.7 °F 61.7 °F 49% 29.83 in 10.0 mi North 9.2 mph 20.7 mph N/A   Partly Cloudy
3:58 PM 84.6 °F 84.0 °F 58.5 °F 41% 29.81 in 10.0 mi North 15.0 mph 19.6 mph N/A   Clear
4:18 PM 84.2 °F 83.8 °F 59.0 °F 42% 29.83 in 10.0 mi NE 12.7 mph - N/A   Clear
4:22 PM 84.2 °F 83.5 °F 57.2 °F 40% 29.83 in 10.0 mi North 12.7 mph 18.4 mph N/A   Clear
4:23 PM 84.2 °F 83.5 °F 57.2 °F 40% 29.83 in 10.0 mi North 12.7 mph 18.4 mph N/A   Clear
4:24 PM 84.2 °F 83.5 °F 57.2 °F 40% 29.83 in 10.0 mi North 12.7 mph 18.4 mph N/A   Clear
4:58 PM 85.6 °F 84.7 °F 57.4 °F 38% 29.81 in 10.0 mi NNE 12.7 mph - N/A   Clear
5:58 PM 84.7 °F 83.1 °F 53.8 °F 34% 29.80 in 10.0 mi NNE 10.4 mph - N/A   Clear
6:58 PM 82.8 °F 81.6 °F 53.2 °F 36% 29.80 in 10.0 mi NNE 10.4 mph - N/A   Clear
7:58 PM 77.5 °F - 51.8 °F 41% 29.81 in 10.0 mi North 8.1 mph - N/A   Clear
8:58 PM 72.3 °F - 52.7 °F 50% 29.83 in 10.0 mi NNE 6.9 mph - N/A   Clear
9:58 PM 72.0 °F - 52.2 °F 50% 29.83 in 10.0 mi NNE 6.9 mph - N/A   Clear
10:58 PM 68.0 °F - 52.3 °F 57% 29.86 in 10.0 mi NNE 8.1 mph - N/A   Clear
11:58 PM 64.0 °F - 54.1 °F 70% 29.86 in 10.0 mi North 4.6 mph - N/A   Clear